Starlink 35036

operational
NORAD ID: 65406 Int'l Des: 2025-192 Owner: SPXS Country: US Constellation: starlink
LEOCIRCULAR

关于 Starlink 35036

正在加载描述...

实时位置

正在加载3D地球...

即将过境

高度历史

Altitude vs Time

uPlot chart will show altitude changes over time

两行轨道根数

1 65406U 25192C 25341.29917530 .00075453 00000-0 18782-2 0 9993
2 65406 53.1607 307.5533 0001865 95.0918 265.0300 15.39611755 15154
Epoch: Dec 7, 2025 • Age: 19 hours

当前状态

高度 449.3 km
速度 7.64 km/s
星下点 -6.93°S, 165.95°W
发射日期 Aug 31, 2025
运行时间 0.2 years
类型 internet

技术详情

分类 Payload
质量 575.00 kg
干质量 530.00 kg
总质量 575.00 kg
长度 0.30 m
直径 4.10 m
跨度 29.00 m
形状 Box + pan
制造商 SPXS
平台类型 Starlink V2MO
阶段状态 In Orbit
所有者/国家 SPXS/US

大型星座

Loading constellations...